Regional Weather Roundup
Issued by NWS Upton, NY

Current Version | Previous Version | Text Only | Print | Product List | Glossary Off
Versions: 1 2 3 4 5 6 7 8 9 10 11 12 13 14 15 16 17 18 19 20 21 22 23 24 25 26 27 28 29 30 31 32 33 34 35 36 37 38 39 40 41 42 43 44 45 46 47 48 49 50
000 ASUS41 KOKX 220705 RWROKX REGIONAL WEATHER ROUNDUP NATIONAL WEATHER SERVICE NEW YORK NY 300 AM EDT MON SEP 22 2014 NOTE: "FAIR" INDICATES FEW OR NO CLOUDS BELOW 12,000 FEET WITH NO SIGNIFICANT WEATHER AND/OR OBSTRUCTIONS TO VISIBILITY. NYZ071-072-176-178-NJZ106-104-220800- NEW YORK CITY METRO AREA CITY SKY/WX TMP DP RH WIND PRES REMARKS CENTRAL PARK PTCLDY 68 57 68 VRB5 29.70R LAGUARDIA APRT PTCLDY 69 59 70 NW10 29.66R KENNEDY INTL CLOUDY 68 58 70 NW10 29.67R NEWARK/LIBERTY PTCLDY 67 60 78 W6 29.68R BRNX BOT. GARD N/A 66 57 72 W7 29.66F TETERBORO MOCLDY 67 57 70 W6 29.66R $$ NYZ177-179-078>081-220800- LONG ISLAND NEW YORK CITY SKY/WX TMP DP RH WIND PRES REMARKS FARMINGDALE MOCLDY 68 63 84 NW5 29.65R ISLIP MOCLDY 68 64 87 W8 29.62R SHIRLEY MOCLDY 69 67 93 W8 29.64R WESTHAMPTON CLOUDY 70 67 90 W7 29.63F MONTAUK POINT N/A 69 67 93 SW8 29.62S $$ NYZ052-065-067-220800- HUDSON VALLEY CITY SKY/WX TMP DP RH WIND PRES REMARKS WHITE PLAINS PTCLDY 64 58 80 W7 29.66R NEWBURGH PTCLDY 63 59 88 W12 29.68R MONTGOMERY PTCLDY 58 56 93 SW3 29.67R POUGHKEEPSIE CLOUDY 65 60 84 SW8 29.64R ALBANY PTCLDY 58 55 90 SW6 29.62F $$ NJZ001-105-106-008-010-013-015-019>022-104-220800- NEW JERSEY CITY SKY/WX TMP DP RH WIND PRES REMARKS NEWARK/LIBERTY PTCLDY 67 60 78 W6 29.68R TETERBORO MOCLDY 67 57 70 W6 29.66R CALDWELL MOCLDY 64 57 78 S3 29.69R MORRISTOWN PTCLDY 63 57 82 CALM 29.69R SOMERVILLE PTCLDY 63 59 87 CALM 29.68R LINDEN PTSUNNY 71 63 76 NW7 29.70R SUSSEX FOG 60 57 89 CALM 29.69S VSB 3/4 ANDOVER N/A 58 57 97 CALM 29.70S TRENTON PTCLDY 66 60 81 W7 29.71R MILLVILLE LGT RAIN 68 60 75 W8 29.73R ATLANTIC CITY PTCLDY 68 62 81 W9 29.72R WRIGHTSTOWN PTCLDY 67 62 83 NW6 29.69R TOMS RIVER PTCLDY 68 61 77 NW10 29.70R BELMAR PTCLDY 66 59 77 NW9 29.69R $$ PAZ047>061-062-071-220800- EASTERN PENNSYLVANIA CITY SKY/WX TMP DP RH WIND PRES REMARKS PHILADELPHIA PTCLDY 70 58 65 W8 29.73R ALLENTOWN CLEAR 64 54 69 W13G18 29.72R SCRANTON CLOUDY 60 55 83 SW6 29.73S $$ CTZ002-004>006-009-010-012-RIZ004-006-007-MAZ004-011-015-220800- SOUTHERN NEW ENGLAND IN CT CITY SKY/WX TMP DP RH WIND PRES REMARKS BRADLEY INTL LGT RAIN 66 56 70 NW7 29.60S HARTFORD LGT RAIN 66 58 75 SW7 29.61S DANBURY MOCLDY 61 60 97 SW6 29.66S WTRBRY/OXFORD CLOUDY 63 57 82 W5 29.66R BRIDGEPORT CLOUDY 67 62 84 W9 29.62F MERIDEN LGT RAIN 66 64 93 CALM 29.62R NEW HAVEN CLOUDY 69 63 81 NW6 29.61F CHESTER CLOUDY 66 66 100 W3 29.63S FOG GROTON MOCLDY 68 68 100 W8 29.60R WILLIMANTIC MOCLDY 68 63 84 MISG 29.60F IN RI CITY SKY/WX TMP DP RH WIND PRES REMARKS PROVIDENCE PTCLDY 68 66 93 SW8 29.58S BLOCK ISLAND CLOUDY 66 64 94 W13 29.61R VSB 3/4 WESTERLY CLOUDY 68 67 96 SW10 29.60S IN MA CITY SKY/WX TMP DP RH WIND PRES REMARKS BOSTON PTCLDY 69 67 93 SW12 29.53S WORCESTER PTCLDY 63 61 93 W12 29.59R WESTFIELD CLOUDY 65 55 70 CALM 29.60S PROVINCETOWN CLOUDY 66 64 94 W13 29.55R NANTUCKET MOCLDY 66 66 100 W13 29.59R $$ ANZ330-335-338-340-345-350-353-355-220800- COASTAL MARINE OBSERVATIONS STATION/POSITION TIME SKY/WX TEMP WIND PRES VSBY WAVE AIR SEA DIR/SP/G HT/PER (UTC) (F) (DEG/KT/KT) (MB) (MI) (FT/S) NY HARB ENTRANCE 0700 71 71 320/ 17/ 21 1004.5 3/ 8 4S FIRE IS 0700 69 N/A 4/ 8 20S FIRE ISLAND 0700 71 69 270/ 12/ 16 1003.8 4/ 8 23SW MTP 0700 N/A 4/ 7 HUDSON CANYON 0700 71 70 240/ 10/ 12 1004.3 6/ 9 EXECUTION ROCKS 0700 69 70 310/ 10/ 14 N/A WESTERN LI SOUND 0700 69 290/ 12/ 14 N/A 0 CENTRAL LI SOUND 0600 68 70 270/ 14/ 17 N/A 1/ 2 EASTERN LI SOUND 0600 69 68 250/ 14/ 17 N/A ROBBINS REEF 0700 69 310/ 9/ 11 1003.6 $$ >>>>>>>>>>>>>>>>>>>>>>>>>>>> KEY <<<<<<<<<<<<<<<<<<<<<<<<<<< > < > SKY/WX - SKY CONDITION/PRESENT WEATHER < > TMP - TEMPERATURE IN FAHRENHEIT < > DP - DEWPOINT IN FAHRENHEIT < > RH - RELATIVE HUMIDITY IN PERCENT < > WIND - DIRECTION AND SPEED IN MPH < > PRES - MEAN SEA LEVEL PRESSURE IN INCHES OF HG < > WCI - WIND CHILL INDEX < > VSB - VISIBILITY IN MILES < > HX - HEAT INDEX < > TC - TEMPERATURE IN CELSIUS < > VRB - VARIABLE WIND DIRECTION < > < >>>>>>>>>>>>>>>>>>>>>>>>>>>> KEY <<<<<<<<<<<<<<<<<<<<<<<<<<<

USA.gov is the U.S. government's official web portal to all federal, state and local government web resources and services.